Regional Weather Roundup
Issued by NWS Grand Forks, ND

Home | Current Version | Previous Version | Graphics & Text | Print | Product List | Glossary On
Versions: 1 2 3 4 5 6 7 8 9 10 11 12 13 14 15 16 17 18 19 20 21 22 23 24 25 26 27 28 29 30 31 32 33 34 35 36 37 38 39 40 41 42 43 44 45 46 47 48 49 50
000
ASUS43 KFGF 232310
RWRFGF
PRAIRIE TO PINES  WEATHER ROUNDUP
NATIONAL WEATHER SERVICE EASTERN NORTH DAKOTA/GRAND FORKS ND
500 PM CST TUE JAN 23 2018

 **SATELLITE DATA USED TO AUGMENT SKY COVER AT AUTOMATED STATIONS**
 *****  WEATHER ACROSS EASTERN NORTH DAKOTA  *****

CITY           SKY/WX    TMP DP  RH WIND       PRES   REMARKS
GRAND FORKS    FLURRIES  23  21  92 S7        30.11R WCI  15
GRAND FRKS AFB CLOUDY    23  21  89 CALM      30.10R
DEVILS LAKE    CLOUDY    20  19  96 NW12      30.10R WCI   8
FARGO          CLOUDY    23  20  88 SW6       30.13R WCI  16
WAHPETON ARPT  CLOUDY    23  19  86 SW6       30.14R WCI  16
$$

 ***** WEATHER ACROSS CENTRAL AND WESTERN NORTH DAKOTA  *****

CITY           SKY/WX    TMP DP  RH WIND       PRES   REMARKS
BISMARCK       FAIR      32  21  64 NW7       30.13R
MINOT          CLOUDY    23  18  81 W8        30.11R WCI  14
JAMESTOWN      CLOUDY    20  18  92 N16       30.11R WCI   6
MINOT AFB      CLOUDY    21  19  90 NW5       30.10R WCI  15
GARRISON         N/A     21  16  81 N3        30.11R
WILLISTON      FAIR      27  20  75 SW7       30.11S WCI  19
DICKINSON      FAIR      32  22  66 W10       30.08R WCI  24
HETTINGER      FAIR      33  21  61 W16       30.13R WCI  23
$$

 *****  OTHER AIRPORT OBSERVATIONS IN OUR AREA  *****

CITY           SKY/WX    TMP DP  RH WIND       PRES   REMARKS
WALHALLA       FAIR      23  23 100 W7G13     30.09R WCI  15
GRAFTON AIRPOR   N/A     23  21  93 W6        30.12R FOG     WCI  16
VALLEY CITY AR MIX PCPN  21  21 100 NW14G22   30.12R WCI   8
CANDO          CLOUDY    23  23 100 NW15G22   30.10S WCI  10
CAVALIER APRT    N/A     23  21  93 NW8       30.09R WCI  14
GWINNER          N/A     25  21  86 CALM      30.11R
SHEYENNE NWR     N/A     24  22  91 W3        29.95S
ROLLA          CLOUDY    21  21 100 NW15      30.06S WCI   8
 ***** THE ABOVE OBSERVATIONS ARE NON NWS ARE NOT QUALITY
       CONTROLLED AND MAY MIS-REPORT RAIN FOR SNOW...
$$

  *****  WEATHER ACROSS NORTHERN MINNESOTA  *****

CITY           SKY/WX    TMP DP  RH WIND       PRES   REMARKS
FLAG ISLAND    CLOUDY    12   3  67 CALM      30.11R
WARROAD        CLOUDY    12   9  85 CALM      30.12R
ROSEAU         FLURRIES  19  16  86 SW5       30.11R WCI  13
HALLOCK        CLOUDY    21  19  93 S9        30.09S FOG     WCI  11
THF RVR FALLS  CLOUDY    18  16  92 S8        30.12R WCI   8
BAUDETTE       FAIR      15   3  59 E8        30.09R WCI   4
WASKISH        FAIR      14   5  67 CALM      30.10R
CROOKSTON      CLOUDY    21  19  93 S8        30.13R WCI  12
STEPHEN NDAWN    N/A     19  18  93 SE9         N/A  WCI   9
GREENBUSH NDAW   N/A     18  18 100 S7          N/A  WCI   8
$$
  *****  WEATHER ACROSS CENTRAL AND WEST MINNESOTA  *****

CITY           SKY/WX    TMP DP  RH WIND       PRES   REMARKS
FOSSTON        CLOUDY    18  12  79 W8        30.11R WCI   7
BEMIDJI        FAIR      20  10  63 CALM      30.08R
PARK RAPIDS    FAIR      20  13  74 W6        30.07R WCI  12
ELBOW LAKE     CLOUDY    23  18  83 NW5       30.12R WCI  16
WADENA         FAIR      19  14  79 W5        30.09R WCI  13
DETROIT LAKES  CLOUDY    21  19  93 CALM      30.11R
MOORHEAD       CLOUDY    21  18  86 SW6       30.14R WCI  14
FERGUS FALLS   CLOUDY    21  18  86 W3        30.13R
MORRIS MN      CLOUDY    25  18  74 W7        30.12R WCI  17
STAPLES        FAIR      19  12  73 CALM      30.09R
$$
  *****  WEATHER ELSEWHERE ACROSS MINNESOTA  *****

CITY           SKY/WX    TMP DP  RH WIND       PRES   REMARKS
DULUTH         FAIR      21   5  50 N6        30.06R WCI  13
INTRNTL FALLS  FAIR      13  -3  49 CALM      30.11R
ELY            NOT AVBL
CLOQUET        FAIR      21   3  45 W3        30.07S
WHEATON        NOT AVBL
BRAINERD       FAIR      24   7  48 CALM      30.09R
HIBBING        FAIR      14   2  58 N3        30.07R
ALEXANDRIA     FAIR      23  17  78 W6        30.10R WCI  16
SAINT CLOUD    FAIR      25  13  60 N3        30.11R
MINNEAPOLIS    FAIR      23  15  71 NW5       30.12R WCI  17
$$

  *****  WEATHER ACROSS SOUTH DAKOTA  *****

CITY           SKY/WX    TMP DP  RH WIND       PRES   REMARKS
SIOUX FALLS    CLOUDY    24  22  91 W5        30.14R WCI  18
BROOKINGS      CLOUDY    23  21  92 W9        30.12R FOG     WCI  13
WATERTOWN      CLOUDY    23  22  96 W8        30.09R FOG     WCI  14
HURON          FAIR      26  23  88 SW3       30.13R
SISSETON         N/A     25  21  85 NW6       30.12R WCI  18
ABERDEEN       FAIR      33  24  69 NW6       30.11R
MITCHELL       FAIR      31  26  82 W5        30.15R
PIERRE         FAIR      40  25  55 N12       30.13R
MOBRIDGE       FAIR      40  25  55 N7        30.09R
RAPID CITY     FAIR      39  17  41 N14       30.16R
$$

  *****  SOME WEATHER IN NEARBY STATES *****

CITY           SKY/WX    TMP DP  RH WIND       PRES   REMARKS
GLASGOW MT     FAIR      25  17  72 CALM      30.11R
GREAT FALLS MT FAIR      36  15  42 SW23G31   30.04F
CHEYENNE WY    FAIR      29  15  56 N9        30.18S WCI  20
SCOTTSBLUFF NE FAIR      33  21  61 W12       30.24R WCI  24
OMAHA NE       CLOUDY    27  22  81 W5        30.20S WCI  22
DES MOINES IA  CLOUDY    26  20  77 NW15G21   30.17R WCI  14
DAVENPORT IA   CLOUDY    28  21  75 W17       30.13R WCI  16
CHICAGO IL     CLOUDY    30  23  75 NW14      30.03R WCI  19
EAU CLAIRE WI  CLOUDY    19  13  77 NW3       30.11R
LA CROSSE WI   CLOUDY    25  18  74 N9        30.12R WCI  15
$$

  *****  SOME NATIONAL WEATHER *****

CITY           SKY/WX    TMP DP  RH WIND       PRES   REMARKS
LA GUARDIA NY  MOCLDY    53  37  54 W17       29.61R
RALEIGH NC     FAIR      56  31  38 SW12      29.79R
ATLANTA GA     FAIR      52  32  46 W13       30.04R
NEW ORLEANS LA MOCLDY    61  30  31 NW7       30.17R
OKLAHOMA CITY  FAIR      51  13  21 N7        30.27R
ALBUQUERQUE NM FAIR      48  11  22 NW5       30.24S
SALT LAKE CITY FAIR      44  26  49 CALM      30.32F
LOS ANGELES CA FAIR      67  40  37 W13       30.10S
BOISE ID       PTSUNNY   43  27  53 SE14      30.19F
SEATTLE WA     LGT RAIN  43  40  89 E8        29.86S
$$

*** WEATHER ACROSS MANITOBA...SASKATCHEWAN AND ONTARIO ***
                ***ONTARIO***

CITY           SKY/WX    TMP DP  RH WIND       PRES   REMARKS
GERALDTON      CLEAR      1  -9  60 N7        30.10R WCI -11
THUNDER BAY    PTCLDY    10  -8  44 N8        30.16R WCI  -1
SIOUX LOOKOUT  MOCLDY     3  -6  66 E3        30.15R
TORONTO        LGT RAIN  36  32  87 W21       29.55R
BIG TROUT LK   CLEAR     -9 -13  84 E6        30.30S WCI -23
PICKLE LAKE    MOCLDY     0 -11  60 NE6       30.17S WCI -12
DRYDEN         CLOUDY     5  -8  56 NE7       30.11R WCI  -7
KENORA         MOCLDY    14  -4  44 SE6       30.09R WCI   5
$$
                *** MANITOBA***

CITY           SKY/WX    TMP DP  RH WIND       PRES   REMARKS
BRANDON        CLOUDY    23  19  86 W7        30.06S WCI  15
DAUPHIN        CLOUDY    25  21  86 W12       30.02S WCI  14
ISLAND LAKE    LGT SNOW   5  -2  72 E13G18    30.14F WCI -12
PILOT MOUND      N/A     21  18  86 NW9         N/A  WCI  11
THE PAS        LGT SNOW   0  -6  78 NE3       30.09R
THOMPSON       MOCLDY   -11 -17  77 NE6       30.20R WCI -25
WINNIPEG       FRZ DRZL  19  19 100 S12       30.08R FOG     WCI   7
CHURCHILL      PTCLDY   -17 -22  76 S3        30.45S
$$
                ***SASKATCHEWAN***

CITY           SKY/WX    TMP DP  RH WIND       PRES   REMARKS
ESTEVAN        MOCLDY    21  19  93 W7        30.09R FOG     WCI  13
KINDERSLEY     PTCLDY    32  19  59 VRB2      29.99S
LLOYDMINSTER   PTCLDY    21  19  93 NE2       29.97S
PRINCE ALBERT  FLURRIES  16  10  79 NW5       30.06R WCI   9
REGINA         PTCLDY    19  18  93 SE5       30.03F FOG     WCI  13
YORKTON        CLOUDY    25  21  86 W13       30.01R WCI  13
N. BATTLEFORD  FOG       18  16  93 N2        30.04R VSB 1/8
LA RONGE       PTCLDY    -2  -8  78 N3        30.11R
SASKATOON      LGT SNOW  21  19  93 SW6       30.05R FOG     WCI  14
SWIFT CURRENT  CLEAR     34  18  51 W10       29.99S
$$
NOTE: THESE ARE AUTOMATED STATIONS WITH LIMITED QUALITY CONTROL
      "FAIR" INDICATES FEW OR NO CLOUDS BELOW 12,000 FEET WITH NO
      SIGNIFICANT WEATHER AND/OR OBSTRUCTIONS TO VISIBILITY.
      SKY/WX - SKY CONDITION AND SIGNIFICANT WEATHER.
      TMP - AIR TEMPERATURE.    DP   - DEWPOINT TEMPERATURE.
      RH  - RELATIVE HUMIDITY.  PRES - PRESSURE.
      HX  - HEAT INDEX.         WCI  - WIND CHILL INDEX.
$




USA.gov is the U.S. government's official web portal to all federal, state and local government web resources and services.